Radiation Dose at Monitoring Post of Fukushima Daini Nuclear Power Station
Date,Time,MP-1(microSv/h),MP-2(microSv/h),MP-3(microSv/h),MP-4(microSv/h),MP-5(microSv/h),MP-6(microSv/h),MP-7(microSv/h),Wind Direction,Wind Velocity(m/s),Rain
2017/08/03,00:00,0.352,0.213,0.352,0.327,0.318,0.173,0.106,north-northwest,5.1,No
2017/08/03,00:10,0.350,0.212,0.350,0.328,0.318,0.173,0.105,north-northwest,4.9,No
2017/08/03,00:20,0.354,0.213,0.353,0.326,0.316,0.173,0.106,north-northwest,5.5,No
2017/08/03,00:30,0.350,0.212,0.350,0.329,0.319,0.172,0.105,north-northwest,5.6,No
2017/08/03,00:40,0.355,0.214,0.353,0.327,0.314,0.172,0.105,north-northwest,4.8,No
2017/08/03,00:50,0.352,0.213,0.348,0.330,0.320,0.173,0.106,north-northwest,5.0,No
2017/08/03,01:00,0.353,0.213,0.352,0.327,0.316,0.172,0.105,north-northwest,4.9,No
2017/08/03,01:10,0.353,0.214,0.352,0.328,0.320,0.174,0.106,north,4.8,No
2017/08/03,01:20,0.351,0.213,0.351,0.328,0.316,0.171,0.105,north,4.4,No
2017/08/03,01:30,0.354,0.214,0.352,0.325,0.317,0.173,0.105,north,4.4,No
2017/08/03,01:40,0.351,0.212,0.351,0.328,0.319,0.172,0.105,north,4.1,No
2017/08/03,01:50,0.355,0.214,0.354,0.326,0.316,0.173,0.105,north,4.6,No
2017/08/03,02:00,0.352,0.213,0.352,0.328,0.319,0.172,0.105,north,4.4,No
2017/08/03,02:10,0.353,0.213,0.353,0.326,0.314,0.173,0.105,north-northwest,4.2,No
2017/08/03,02:20,0.353,0.213,0.351,0.329,0.321,0.172,0.105,north,4.0,No
2017/08/03,02:30,0.352,0.213,0.356,0.326,0.315,0.172,0.105,north-northwest,3.7,No
2017/08/03,02:40,0.352,0.213,0.350,0.329,0.319,0.172,0.106,north-northwest,4.0,No
2017/08/03,02:50,0.352,0.214,0.353,0.327,0.317,0.172,0.106,north,3.6,No
2017/08/03,03:00,0.352,0.212,0.351,0.329,0.317,0.173,0.106,north,3.6,No
2017/08/03,03:10,0.351,0.214,0.352,0.326,0.318,0.172,0.105,north,3.8,No
2017/08/03,03:20,0.353,0.213,0.352,0.328,0.315,0.173,0.106,north,3.6,No
2017/08/03,03:30,0.352,0.214,0.350,0.329,0.319,0.171,0.106,north,4.7,No
2017/08/03,03:40,0.352,0.211,0.354,0.327,0.315,0.173,0.105,north,4.5,No
2017/08/03,03:50,0.353,0.213,0.351,0.330,0.318,0.173,0.106,north,4.6,No
2017/08/03,04:00,0.351,0.211,0.354,0.326,0.316,0.173,0.104,north,4.1,No
2017/08/03,04:10,0.355,0.213,0.350,0.329,0.317,0.173,0.106,north,4.6,No
2017/08/03,04:20,0.350,0.213,0.353,0.326,0.319,0.172,0.104,north,4.7,No
2017/08/03,04:30,0.354,0.212,0.351,0.329,0.315,0.174,0.106,north,5.2,No
2017/08/03,04:40,0.351,0.213,0.351,0.328,0.320,0.172,0.105,north,4.6,No
2017/08/03,04:50,0.351,0.214,0.353,0.327,0.315,0.172,0.105,north,5.1,No
2017/08/03,05:00,0.352,0.213,0.350,0.329,0.318,0.173,0.106,north,5.3,No
2017/08/03,05:10,0.350,0.212,0.352,0.325,0.320,0.172,0.104,north,5.0,No
2017/08/03,05:20,0.354,0.214,0.350,0.330,0.315,0.173,0.106,north,5.3,No
2017/08/03,05:30,0.353,0.213,0.352,0.328,0.319,0.173,0.105,north,5.1,No
2017/08/03,05:40,0.352,0.213,0.352,0.329,0.316,0.173,0.106,north,5.2,No
2017/08/03,05:50,0.354,0.213,0.351,0.329,0.318,0.173,0.106,north-northwest,5.4,No
2017/08/03,06:00,0.350,0.214,0.353,0.326,0.317,0.172,0.106,north-northwest,5.2,No
2017/08/03,06:10,0.355,0.214,0.352,0.328,0.316,0.173,0.105,north-northwest,4.5,No
2017/08/03,06:20,0.350,0.213,0.354,0.327,0.318,0.171,0.105,north-northwest,4.2,No
2017/08/03,06:30,0.352,0.214,0.352,0.328,0.315,0.173,0.104,north-northwest,4.2,No
2017/08/03,06:40,0.354,0.212,0.353,0.325,0.318,0.172,0.104,north-northwest,3.8,No
2017/08/03,06:50,0.351,0.212,0.351,0.328,0.318,0.172,0.104,north-northwest,3.9,No
2017/08/03,07:00,0.354,0.215,0.351,0.329,0.316,0.173,0.103,north,4.2,No
2017/08/03,07:10,0.352,0.212,0.352,0.326,0.319,0.172,0.104,north,4.3,No
2017/08/03,07:20,0.350,0.212,0.350,0.325,0.318,0.173,0.104,north,4.3,No
2017/08/03,07:30,0.354,0.210,0.349,0.325,0.316,0.172,0.104,north,3.6,No
2017/08/03,07:40,0.355,0.211,0.347,0.328,0.318,0.172,0.105,north-northeast,3.1,No
2017/08/03,07:50,0.350,0.212,0.351,0.328,0.320,0.172,0.104,east-northeast,2.4,No
2017/08/03,08:00,0.348,0.213,0.353,0.325,0.316,0.172,0.105,east-northeast,1.6,No
2017/08/03,08:10,0.348,0.212,0.350,0.324,0.314,0.172,0.104,northeast,2.2,No
2017/08/03,08:20,0.347,0.212,0.350,0.326,0.315,0.171,0.105,north-northeast,3.0,No
2017/08/03,08:30,0.355,0.211,0.354,0.328,0.319,0.172,0.104,north-northeast,2.0,No
2017/08/03,08:40,0.356,0.213,0.352,0.327,0.319,0.173,0.103,northeast,2.8,No
2017/08/03,08:50,0.352,0.215,0.349,0.325,0.316,0.173,0.103,northeast,2.3,No
2017/08/03,09:00,0.350,0.214,0.353,0.329,0.314,0.172,0.103,east-northeast,2.5,No
2017/08/03,09:10,0.356,0.213,0.352,0.329,0.318,0.172,0.105,northeast,3.5,No
2017/08/03,09:20,0.353,0.212,0.349,0.327,0.320,0.172,0.105,northeast,2.0,No
2017/08/03,09:30,0.352,0.213,0.349,0.326,0.318,0.173,0.104,northeast,3.0,No
2017/08/03,09:40,0.349,0.215,0.352,0.324,0.316,0.173,0.103,east-northeast,2.2,No
2017/08/03,09:50,0.354,0.213,0.354,0.329,0.313,0.173,0.103,east-northeast,2.2,No
2017/08/03,10:00,0.355,0.212,0.351,0.329,0.317,0.172,0.104,east-northeast,2.8,No
2017/08/03,10:10,0.353,0.211,0.349,0.327,0.315,0.173,0.104,east,2.5,No
2017/08/03,10:20,0.349,0.211,0.349,0.326,0.319,0.173,0.104,east-northeast,2.7,No
2017/08/03,10:30,0.349,0.211,0.353,0.325,0.321,0.174,0.104,east,2.4,No
2017/08/03,10:40,0.352,0.213,0.355,0.327,0.318,0.173,0.104,east,2.2,No
2017/08/03,10:50,0.355,0.214,0.352,0.330,0.316,0.173,0.105,east-southeast,1.5,No
2017/08/03,11:00,0.353,0.214,0.349,0.328,0.316,0.173,0.105,east,2.5,No
2017/08/03,11:10,0.352,0.213,0.352,0.325,0.321,0.173,0.105,east-northeast,2.3,No
2017/08/03,11:20,0.350,0.213,0.354,0.328,0.320,0.174,0.105,east-southeast,2.7,No
2017/08/03,11:30,0.355,0.213,0.353,0.331,0.318,0.173,0.104,east,2.2,No
2017/08/03,11:40,0.353,0.212,0.349,0.328,0.316,0.173,0.102,east,2.4,No
2017/08/03,11:50,0.350,0.212,0.353,0.327,0.316,0.172,0.103,east,3.1,No
2017/08/03,12:00,0.351,0.212,0.352,0.329,0.320,0.173,0.104,east-southeast,2.6,No
2017/08/03,12:10,0.355,0.214,0.350,0.330,0.319,0.174,0.105,east,2.0,No
2017/08/03,12:20,0.352,0.213,0.350,0.328,0.317,0.173,0.103,east,1.4,No
2017/08/03,12:30,0.349,0.212,0.354,0.326,0.318,0.173,0.105,east,1.9,No
2017/08/03,12:40,0.355,0.215,0.352,0.331,0.321,0.173,0.105,east,2.1,No
2017/08/03,12:50,0.356,0.213,0.349,0.329,0.317,0.174,0.106,east-northeast,3.1,No
2017/08/03,13:00,0.352,0.213,0.354,0.326,0.316,0.173,0.105,east,2.5,No
2017/08/03,13:10,0.351,0.213,0.354,0.329,0.321,0.172,0.105,northeast,1.1,No
2017/08/03,13:20,0.356,0.214,0.351,0.332,0.319,0.173,0.105,east-northeast,1.7,No
2017/08/03,13:30,0.353,0.214,0.352,0.328,0.316,0.174,0.104,east,1.7,No
2017/08/03,13:40,0.350,0.212,0.354,0.327,0.318,0.173,0.104,east,1.8,No
2017/08/03,13:50,0.354,0.215,0.351,0.331,0.321,0.173,0.105,southeast,1.9,No
2017/08/03,14:00,0.355,0.213,0.350,0.329,0.318,0.174,0.105,southeast,1.8,No
2017/08/03,14:10,0.352,0.213,0.355,0.327,0.315,0.172,0.104,east-southeast,1.4,No
2017/08/03,14:20,0.352,0.213,0.351,0.330,0.322,0.172,0.104,east-southeast,1.4,No
2017/08/03,14:30,0.356,0.214,0.350,0.330,0.319,0.174,0.105,east-southeast,1.9,No
2017/08/03,14:40,0.353,0.213,0.355,0.327,0.316,0.173,0.104,east-southeast,1.9,No
2017/08/03,14:50,0.351,0.212,0.354,0.328,0.318,0.172,0.104,east,1.4,No
2017/08/03,15:00,0.355,0.215,0.350,0.331,0.321,0.173,0.105,east,1.1,No
2017/08/03,15:10,0.354,0.214,0.354,0.329,0.317,0.174,0.105,east,1.0,No
2017/08/03,15:20,0.351,0.213,0.354,0.327,0.317,0.173,0.105,east-southeast,1.1,No
2017/08/03,15:30,0.354,0.213,0.352,0.331,0.321,0.173,0.105,-,CALM,No
2017/08/03,15:40,0.355,0.215,0.354,0.329,0.320,0.174,0.105,east,1.1,No
2017/08/03,15:50,0.351,0.213,0.355,0.328,0.316,0.173,0.104,east,0.8,No
2017/08/03,16:00,0.351,0.213,0.351,0.329,0.319,0.173,0.103,-,CALM,No
2017/08/03,16:10,0.357,0.216,0.351,0.331,0.321,0.172,0.105,east-southeast,0.8,No
2017/08/03,16:20,0.354,0.214,0.357,0.327,0.318,0.174,0.104,east-southeast,1.0,No
2017/08/03,16:30,0.351,0.212,0.353,0.328,0.316,0.174,0.104,east-northeast,0.6,No
2017/08/03,16:40,0.353,0.214,0.350,0.331,0.320,0.172,0.105,east-southeast,0.8,No
2017/08/03,16:50,0.356,0.214,0.354,0.329,0.319,0.173,0.106,northeast,1.1,No
2017/08/03,17:00,0.351,0.213,0.353,0.326,0.316,0.174,0.105,east-northeast,1.0,No
2017/08/03,17:10,0.351,0.213,0.350,0.331,0.316,0.174,0.104,northeast,0.8,No
2017/08/03,17:20,0.357,0.215,0.356,0.330,0.321,0.172,0.105,northeast,1.5,No
2017/08/03,17:30,0.353,0.213,0.354,0.326,0.319,0.174,0.105,north-northeast,1.4,No
2017/08/03,17:40,0.351,0.215,0.352,0.331,0.318,0.174,0.105,-,CALM,No
2017/08/03,17:50,0.355,0.215,0.354,0.331,0.321,0.173,0.106,-,CALM,No
2017/08/03,18:00,0.355,0.213,0.355,0.326,0.320,0.173,0.105,east-northeast,0.7,No
2017/08/03,18:10,0.351,0.214,0.351,0.331,0.316,0.174,0.105,east-northeast,0.8,No
2017/08/03,18:20,0.355,0.214,0.354,0.331,0.320,0.173,0.106,-,CALM,No
2017/08/03,18:30,0.356,0.213,0.355,0.328,0.320,0.174,0.105,south,0.7,No
2017/08/03,18:40,0.352,0.213,0.352,0.329,0.316,0.173,0.105,south-southwest,0.7,No
2017/08/03,18:50,0.353,0.215,0.354,0.332,0.320,0.173,0.106,south,0.5,No
2017/08/03,19:00,0.356,0.213,0.354,0.326,0.320,0.173,0.105,-,CALM,No
2017/08/03,19:10,0.352,0.214,0.350,0.329,0.317,0.174,0.104,-,CALM,No
2017/08/03,19:20,0.354,0.214,0.354,0.330,0.319,0.174,0.106,south,0.6,No
2017/08/03,19:30,0.356,0.213,0.356,0.327,0.320,0.173,0.105,-,CALM,No
2017/08/03,19:40,0.353,0.214,0.351,0.330,0.316,0.174,0.105,-,CALM,No
2017/08/03,19:50,0.355,0.215,0.356,0.331,0.319,0.174,0.106,-,CALM,No
2017/08/03,20:00,0.356,0.213,0.354,0.328,0.320,0.174,0.104,-,CALM,No
2017/08/03,20:10,0.353,0.214,0.352,0.331,0.316,0.175,0.105,-,CALM,No
2017/08/03,20:20,0.353,0.214,0.354,0.330,0.319,0.172,0.105,-,CALM,No
2017/08/03,20:30,0.354,0.213,0.354,0.327,0.321,0.174,0.105,north,0.7,No
2017/08/03,20:40,0.351,0.216,0.352,0.330,0.316,0.174,0.105,-,CALM,No
2017/08/03,20:50,0.353,0.214,0.355,0.330,0.320,0.173,0.106,northwest,0.5,No
2017/08/03,21:00,0.356,0.214,0.354,0.327,0.321,0.173,0.105,-,CALM,No
2017/08/03,21:10,0.351,0.216,0.354,0.331,0.317,0.173,0.106,-,CALM,No
2017/08/03,21:20,0.356,0.214,0.356,0.329,0.321,0.172,0.105,west,0.5,No
2017/08/03,21:30,0.354,0.215,0.353,0.327,0.320,0.174,0.106,west,0.6,Yes
2017/08/03,21:40,0.352,0.215,0.352,0.332,0.317,0.175,0.105,-,CALM,No
2017/08/03,21:50,0.355,0.213,0.357,0.330,0.322,0.173,0.106,west-northwest,0.6,No
2017/08/03,22:00,0.355,0.214,0.352,0.328,0.320,0.174,0.105,-,CALM,No
2017/08/03,22:10,0.353,0.214,0.354,0.331,0.317,0.175,0.106,west-northwest,0.7,No
2017/08/03,22:20,0.356,0.214,0.355,0.328,0.320,0.172,0.106,-,CALM,No
2017/08/03,22:30,0.354,0.215,0.352,0.329,0.320,0.174,0.104,-,CALM,No
2017/08/03,22:40,0.351,0.213,0.354,0.332,0.316,0.173,0.105,-,CALM,No
2017/08/03,22:50,0.356,0.215,0.354,0.329,0.321,0.173,0.106,-,CALM,No
2017/08/03,23:00,0.354,0.214,0.352,0.330,0.320,0.175,0.105,-,CALM,No
2017/08/03,23:10,0.352,0.213,0.355,0.332,0.318,0.173,0.105,-,CALM,No
2017/08/03,23:20,0.355,0.214,0.354,0.327,0.321,0.174,0.106,-,CALM,No
2017/08/03,23:30,0.353,0.214,0.352,0.331,0.320,0.174,0.104,west-southwest,0.5,No
2017/08/03,23:40,0.352,0.213,0.355,0.332,0.317,0.173,0.105,-,CALM,No
2017/08/03,23:50,0.356,0.215,0.354,0.328,0.321,0.173,0.105,southwest,0.7,No
